Flag for Germany Weather past 2 weeks in Greifswald, Mecklenburg-Western Pomerania, Germany

Now
41 °F

Scattered clouds.


Feels Like: 41 °F
Forecast: 35 / 46 °F
Wind: 2 mph from Northwest

Location: Greifswald

Current Time: Mar 5, 2015 at 6:04:04 PM

Latest Report: Mar 5, 2015 at 5:00 PM


Visibility: 17 mi

Pressure: 30.47 "Hg

Humidity: 72%

Dew point: 33 °F

Location of GreifswaldLocation

Historic Weather in Greifswald — Graph

°F

Greifswald temperature yesterday

Maximum temperature yesterday: 43 °F (at 4:00 PM)
Minimum temperature yesterday: 33 °F (at 2:00 AM)
Average temperature yesterday: 38 °F

Past Weeks' High & Low Weather Summary

 TemperatureHumidityPressure
High49 °F (Feb 27, 3:00 PM)98% (Feb 26, 2:00 AM)30.53 "Hg (Feb 26, 2:00 AM)
Low29 °F (Feb 26, 3:00 AM)43% (Feb 19, 3:00 PM)29.26 "Hg (Feb 21, 3:00 PM)
Average38 °F79%29.85 "Hg
* Reported Feb 18 5:00 PM — Mar 5 5:00 PM, Greifswald, Weather by CustomWeather, © 2015

Note: Actual official high and low records may vary slightly from our data, if they occured in-between our weather recording intervals... More about our weather records

Advertising

Greifswald weather history for previous 24 hours

 ConditionsComfort  
Time TempWeatherWind HumidityBarometerVisibility
5:00 PM
Thu, Mar 5
41 °FScattered clouds.2 mph72%30.47 "Hg17 mi
4:00 PM42 °FPartly sunny.5 mph72%30.47 "Hg25 mi
3:00 PM41 °FPartly sunny.7 mph72%30.46 "Hg28 mi
2:00 PM41 °FPartly sunny.6 mph74%30.45 "Hg22 mi
1:00 PM40 °FOvercast.6 mph75%30.45 "Hg25 mi
12:00 PM41 °FOvercast.6 mph76%30.44 "Hg25 mi
11:00 AM39 °FOvercast.5 mph80%30.43 "Hg19 mi
9:00 AM36 °FLow clouds.3 mph89%30.41 "Hg10 mi
8:00 AM35 °FOvercast.3 mph94%30.39 "Hg5 mi
7:00 AM33 °FFog.5 mph96%30.38 "Hg4 mi
6:00 AM34 °FClear.3 mph96%30.36 "Hg6 mi
5:00 AM34 °FPassing clouds.3 mph93%30.34 "Hg6 mi
3:00 AM37 °FLow clouds.7 mph91%30.28 "Hg9 mi
2:00 AM37 °FLow clouds.5 mph92%30.25 "Hg19 mi
1:00 AM37 °FOvercast.3 mph94%30.22 "Hg5 mi
12:00 AM37 °FOvercast.2 mph92%30.18 "Hg7 mi
11:00 PM
Wed, Mar 4
37 °FOvercast.3 mph90%30.16 "Hg9 mi
10:00 PM37 °FPassing clouds.3 mph89%30.13 "Hg11 mi
9:00 PM38 °FOvercast.5 mph86%30.11 "Hg14 mi
8:00 PM38 °FPassing clouds.3 mph85%30.10 "Hg14 mi
7:00 PM40 °FOvercast.3 mph78%30.08 "Hg16 mi
6:00 PM42 °FPassing clouds.5 mph74%30.07 "Hg16 mi
Weather by CustomWeather, © 2015

See weather overviewHow to use our weather pages